Time,TemperatureF,DewpointF,PressureIn,WindDirection,WindDirectionDegrees,WindSpeedMPH,WindSpeedGustMPH,Humidity,HourlyPrecipIn,Conditions,Clouds,dailyrainin,SoftwareType,DateUTC
2013-11-06 09:37:00,53.0,0.0,30.37,North,1,2.0,5.0,19,-99.99,,,-99.99,,2013-11-06 17:37:00,
2013-11-06 09:40:00,54.0,0.0,30.37,NNE,24,3.0,5.0,19,-99.99,,,-99.99,,2013-11-06 17:40:00,
2013-11-06 09:44:00,54.0,0.0,30.37,East,79,2.0,3.0,18,-99.99,,,-99.99,,2013-11-06 17:44:00,
2013-11-06 09:48:00,54.0,0.0,30.37,ENE,60,3.0,5.0,17,-99.99,,,-99.99,,2013-11-06 17:48:00,
2013-11-06 09:56:00,56.0,0.0,30.37,NNE,19,2.0,3.0,17,-99.99,,,-99.99,,2013-11-06 17:56:00,
2013-11-06 10:04:00,55.0,0.0,30.37,ENE,58,3.0,5.0,17,-99.99,,,-99.99,,2013-11-06 18:04:00,
2013-11-06 10:12:00,55.0,0.0,30.37,SE,137,2.0,5.0,17,-99.99,,,-99.99,,2013-11-06 18:12:00,
2013-11-06 10:20:00,56.0,0.0,30.37,East,94,1.0,3.0,18,-99.99,,,-99.99,,2013-11-06 18:20:00,
2013-11-06 10:24:00,58.0,0.0,30.36,NE,47,2.0,3.0,16,-99.99,,,-99.99,,2013-11-06 18:24:00,
2013-11-06 10:32:00,57.0,0.0,30.36,ENE,70,1.0,3.0,19,-99.99,,,-99.99,,2013-11-06 18:32:00,
2013-11-06 10:40:00,59.0,0.0,30.36,ESE,111,2.0,5.0,15,-99.99,,,-99.99,,2013-11-06 18:40:00,
2013-11-06 10:48:00,60.0,0.0,30.35,ESE,117,2.0,5.0,15,-99.99,,,-99.99,,2013-11-06 18:48:00,
2013-11-06 10:56:00,60.0,0.0,30.35,ESE,116,3.0,5.0,17,-99.99,,,-99.99,,2013-11-06 18:56:00,
2013-11-06 11:04:00,61.0,0.0,30.35,SSE,164,2.0,6.0,17,-99.99,,,-99.99,,2013-11-06 19:04:00,
2013-11-06 11:12:00,62.0,0.0,30.35,SE,142,5.0,5.0,16,-99.99,,,-99.99,,2013-11-06 19:12:00,
2013-11-06 11:20:00,62.0,0.0,30.35,East,92,1.0,6.0,16,-99.99,,,-99.99,,2013-11-06 19:20:00,
2013-11-06 11:28:00,63.0,0.0,30.34,ESE,116,5.0,6.0,14,-99.99,,,-99.99,,2013-11-06 19:28:00,
2013-11-06 11:36:00,62.0,0.0,30.34,East,85,1.0,6.0,14,-99.99,,,-99.99,,2013-11-06 19:36:00,
2013-11-06 11:44:00,63.0,0.0,30.33,SSE,155,3.0,6.0,14,-99.99,,,-99.99,,2013-11-06 19:44:00,
2013-11-06 11:52:00,64.0,0.0,30.32,South,177,1.0,6.0,14,-99.99,,,-99.99,,2013-11-06 19:52:00,
2013-11-06 12:00:00,65.0,0.0,30.32,SSE,164,1.0,6.0,15,-99.99,,,-99.99,,2013-11-06 20:00:00,
2013-11-06 12:08:00,65.0,0.0,30.32,NE,54,1.0,5.0,13,-99.99,,,-99.99,,2013-11-06 20:08:00,
2013-11-06 12:16:00,65.0,0.0,30.32,NE,53,3.0,6.0,15,-99.99,,,-99.99,,2013-11-06 20:16:00,
2013-11-06 12:24:00,67.0,0.0,30.31,SSW,202,3.0,6.0,14,-99.99,,,-99.99,,2013-11-06 20:24:00,
2013-11-06 12:32:00,67.0,0.0,30.31,SE,136,1.0,6.0,17,-99.99,,,-99.99,,2013-11-06 20:32:00,
2013-11-06 12:40:00,67.0,0.0,30.31,ESE,113,2.0,6.0,14,-99.99,,,-99.99,,2013-11-06 20:40:00,
2013-11-06 12:48:00,67.0,0.0,30.30,WSW,252,2.0,5.0,13,-99.99,,,-99.99,,2013-11-06 20:48:00,
2013-11-06 12:56:00,68.0,0.0,30.30,South,177,0.0,6.0,13,-99.99,,,-99.99,,2013-11-06 20:56:00,
2013-11-06 13:04:00,67.0,0.0,30.29,SSE,163,1.0,5.0,13,-99.99,,,-99.99,,2013-11-06 21:04:00,
2013-11-06 13:12:00,66.0,0.0,30.29,ESE,116,0.0,6.0,13,-99.99,,,-99.99,,2013-11-06 21:12:00,
2013-11-06 13:20:00,68.0,0.0,30.29,SSE,160,1.0,6.0,13,-99.99,,,-99.99,,2013-11-06 21:20:00,
2013-11-06 13:28:00,69.0,0.0,30.29,SSW,212,2.0,6.0,12,-99.99,,,-99.99,,2013-11-06 21:28:00,
2013-11-06 13:36:00,69.0,0.0,30.29,SW,214,5.0,6.0,12,-99.99,,,-99.99,,2013-11-06 21:36:00,
2013-11-06 13:44:00,69.0,0.0,30.28,South,187,3.0,6.0,14,-99.99,,,-99.99,,2013-11-06 21:44:00,
2013-11-06 13:52:00,69.0,0.0,30.28,NW,326,2.0,5.0,14,-99.99,,,-99.99,,2013-11-06 21:52:00,
2013-11-06 14:00:00,70.0,0.0,30.28,WSW,258,2.0,5.0,14,-99.99,,,-99.99,,2013-11-06 22:00:00,
2013-11-06 14:08:00,68.0,0.0,30.28,ENE,61,2.0,7.0,13,-99.99,,,-99.99,,2013-11-06 22:08:00,
2013-11-06 14:16:00,69.0,0.0,30.28,SW,223,2.0,3.0,12,-99.99,,,-99.99,,2013-11-06 22:16:00,
2013-11-06 14:24:00,70.0,0.0,30.27,SSW,193,2.0,3.0,13,-99.99,,,-99.99,,2013-11-06 22:24:00,
2013-11-06 14:32:00,70.0,0.0,30.27,South,174,1.0,6.0,16,-99.99,,,-99.99,,2013-11-06 22:32:00,